Time,TemperatureF,DewpointF,PressureIn,WindDirection,WindDirectionDegrees,WindSpeedMPH,WindSpeedGustMPH,Humidity,HourlyPrecipIn,Conditions,Clouds,dailyrainin,SoftwareType,DateUTC
2013-03-26 00:00:00,34.4,27.0,29.85,ESE,120,3.0,6.0,74,0.00,,,0.00,WUHU216DAVISVP2,2013-03-26 04:00:00,
2013-03-26 00:05:00,34.5,27.1,29.86,SE,142,1.0,6.0,74,0.00,,,0.00,WUHU216DAVISVP2,2013-03-26 04:05:00,
2013-03-26 00:10:00,34.4,27.0,29.86,SE,128,1.0,6.0,74,0.00,,,0.00,WUHU216DAVISVP2,2013-03-26 04:10:00,
2013-03-26 00:15:00,34.4,27.0,29.86,SE,134,0.0,7.0,74,0.00,,,0.00,WUHU216DAVISVP2,2013-03-26 04:15:00,
2013-03-26 00:20:00,34.3,26.9,29.86,ESE,120,3.0,7.0,74,0.00,,,0.00,WUHU216DAVISVP2,2013-03-26 04:20:00,
2013-03-26 00:25:00,34.3,26.5,29.86,SE,132,2.0,6.0,73,0.00,,,0.00,WUHU216DAVISVP2,2013-03-26 04:25:00,
2013-03-26 00:30:00,34.4,26.7,29.86,SE,138,1.0,6.0,73,0.00,,,0.00,WUHU216DAVISVP2,2013-03-26 04:30:00,
2013-03-26 00:35:00,34.4,26.6,29.86,ESE,120,3.0,5.0,73,0.00,,,0.00,WUHU216DAVISVP2,2013-03-26 04:35:00,
2013-03-26 00:40:00,34.4,26.7,29.86,SE,127,3.0,5.0,73,0.00,,,0.00,WUHU216DAVISVP2,2013-03-26 04:40:00,
2013-03-26 00:45:00,34.4,26.7,29.86,South,187,0.0,5.0,73,0.00,,,0.00,WUHU216DAVISVP2,2013-03-26 04:45:00,
2013-03-26 00:50:00,34.3,26.6,29.86,SE,126,1.0,5.0,73,0.00,,,0.00,WUHU216DAVISVP2,2013-03-26 04:50:00,
2013-03-26 00:55:00,34.3,26.3,29.86,ESE,121,3.0,6.0,72,0.00,,,0.00,WUHU216DAVISVP2,2013-03-26 04:55:00,
2013-03-26 01:00:00,34.3,26.3,29.86,SE,124,3.0,6.0,72,0.00,,,0.00,WUHU216DAVISVP2,2013-03-26 05:00:00,
2013-03-26 01:05:00,34.3,26.3,29.86,ESE,123,2.0,9.0,72,0.00,,,0.00,WUHU216DAVISVP2,2013-03-26 05:05:00,
2013-03-26 01:10:00,34.3,26.6,29.86,SE,125,2.0,9.0,73,0.00,,,0.00,WUHU216DAVISVP2,2013-03-26 05:10:00,
2013-03-26 01:15:00,34.2,26.2,29.86,SE,124,3.0,8.0,72,0.00,,,0.00,WUHU216DAVISVP2,2013-03-26 05:15:00,
2013-03-26 01:20:00,34.1,26.4,29.86,ESE,107,3.0,6.0,73,0.00,,,0.00,WUHU216DAVISVP2,2013-03-26 05:20:00,
2013-03-26 01:25:00,34.1,26.4,29.86,East,98,2.0,8.0,73,0.00,,,0.00,WUHU216DAVISVP2,2013-03-26 05:25:00,
2013-03-26 01:30:00,34.0,26.3,29.86,SE,139,1.0,8.0,73,0.00,,,0.00,WUHU216DAVISVP2,2013-03-26 05:30:00,
2013-03-26 01:35:00,34.0,26.3,29.87,SE,137,2.0,8.0,73,0.00,,,0.00,WUHU216DAVISVP2,2013-03-26 05:35:00,
2013-03-26 01:40:00,33.9,26.2,29.87,South,172,3.0,8.0,73,0.00,,,0.00,WUHU216DAVISVP2,2013-03-26 05:40:00,
2013-03-26 01:45:00,33.8,26.1,29.87,South,186,1.0,8.0,73,0.00,,,0.00,WUHU216DAVISVP2,2013-03-26 05:45:00,
2013-03-26 01:50:00,33.9,25.9,29.87,East,89,4.0,8.0,72,0.00,,,0.00,WUHU216DAVISVP2,2013-03-26 05:50:00,
2013-03-26 01:55:00,33.9,26.2,29.87,SSE,167,2.0,8.0,73,0.00,,,0.00,WUHU216DAVISVP2,2013-03-26 05:55:00,
2013-03-26 02:00:00,33.8,26.1,29.87,SE,127,1.0,8.0,73,0.00,,,0.00,WUHU216DAVISVP2,2013-03-26 06:00:00,
2013-03-26 02:05:00,33.6,25.9,29.87,ESE,121,5.0,8.0,73,0.00,,,0.00,WUHU216DAVISVP2,2013-03-26 06:05:00,
2013-03-26 02:10:00,33.6,26.2,29.87,SSE,159,1.0,5.0,74,0.00,,,0.00,WUHU216DAVISVP2,2013-03-26 06:10:00,
2013-03-26 02:15:00,33.6,26.2,29.87,ESE,121,3.0,8.0,74,0.00,,,0.00,WUHU216DAVISVP2,2013-03-26 06:15:00,
2013-03-26 02:20:00,33.6,25.9,29.87,ESE,120,5.0,8.0,73,0.00,,,0.00,WUHU216DAVISVP2,2013-03-26 06:20:00,
2013-03-26 02:25:00,33.5,26.1,29.87,SSE,152,1.0,7.0,74,0.00,,,0.00,WUHU216DAVISVP2,2013-03-26 06:25:00,
2013-03-26 02:30:00,33.5,25.8,29.87,SE,129,3.0,7.0,73,0.00,,,0.00,WUHU216DAVISVP2,2013-03-26 06:30:00,
2013-03-26 02:35:00,33.4,25.7,29.87,ESE,109,4.0,6.0,73,0.00,,,0.00,WUHU216DAVISVP2,2013-03-26 06:35:00,
2013-03-26 02:40:00,33.4,25.7,29.87,SE,143,2.0,7.0,73,0.00,,,0.00,WUHU216DAVISVP2,2013-03-26 06:40:00,
2013-03-26 02:45:00,33.4,25.7,29.88,ESE,105,5.0,7.0,73,0.00,,,0.00,WUHU216DAVISVP2,2013-03-26 06:45:00,
2013-03-26 02:50:00,33.4,25.7,29.88,ESE,117,4.0,10.0,73,0.00,,,0.00,WUHU216DAVISVP2,2013-03-26 06:50:00,
2013-03-26 02:55:00,33.3,25.6,29.88,SE,139,1.0,10.0,73,0.00,,,0.00,WUHU216DAVISVP2,2013-03-26 06:55:00,
2013-03-26 03:00:00,33.3,26.0,29.88,ESE,113,3.0,10.0,74,0.00,,,0.00,WUHU216DAVISVP2,2013-03-26 07:00:00,
2013-03-26 03:05:00,33.2,25.9,29.88,ESE,113,2.0,10.0,74,0.00,,,0.00,WUHU216DAVISVP2,2013-03-26 07:05:00,
2013-03-26 03:10:00,33.1,25.7,29.88,South,173,2.0,7.0,74,0.00,,,0.00,WUHU216DAVISVP2,2013-03-26 07:10:00,
2013-03-26 03:15:00,33.0,25.7,29.88,ESE,123,2.0,8.0,74,0.00,,,0.00,WUHU216DAVISVP2,2013-03-26 07:15:00,
2013-03-26 03:20:00,32.9,25.9,29.88,ENE,74,3.0,8.0,75,0.00,,,0.00,WUHU216DAVISVP2,2013-03-26 07:20:00,
2013-03-26 03:25:00,32.9,25.9,29.88,ESE,111,3.0,8.0,75,0.00,,,0.00,WUHU216DAVISVP2,2013-03-26 07:25:00,
2013-03-26 03:30:00,32.9,25.9,29.87,ESE,117,2.0,8.0,75,0.00,,,0.00,WUHU216DAVISVP2,2013-03-26 07:30:00,
2013-03-26 03:35:00,32.9,25.8,29.88,SE,143,1.0,8.0,75,0.00,,,0.00,WUHU216DAVISVP2,2013-03-26 07:35:00,
2013-03-26 03:40:00,32.9,25.8,29.88,ESE,111,3.0,7.0,75,0.00,,,0.00,WUHU216DAVISVP2,2013-03-26 07:40:00,
2013-03-26 03:45:00,32.8,25.8,29.88,SE,134,1.0,7.0,75,0.00,,,0.00,WUHU216DAVISVP2,2013-03-26 07:45:00,
2013-03-26 03:50:00,32.9,25.9,29.88,ESE,115,2.0,10.0,75,0.00,,,0.00,WUHU216DAVISVP2,2013-03-26 07:50:00,
2013-03-26 03:55:00,32.9,25.9,29.88,ESE,119,3.0,10.0,75,0.00,,,0.00,WUHU216DAVISVP2,2013-03-26 07:55:00,
2013-03-26 04:00:00,32.9,25.5,29.88,SE,126,1.0,10.0,74,0.00,,,0.00,WUHU216DAVISVP2,2013-03-26 08:00:00,
2013-03-26 04:05:00,32.9,25.5,29.88,SE,124,4.0,8.0,74,0.00,,,0.00,WUHU216DAVISVP2,2013-03-26 08:05:00,
2013-03-26 04:10:00,32.9,25.9,29.88,SE,134,1.0,8.0,75,0.00,,,0.00,WUHU216DAVISVP2,2013-03-26 08:10:00,
2013-03-26 04:15:00,32.9,25.9,29.88,ESE,123,4.0,8.0,75,0.00,,,0.00,WUHU216DAVISVP2,2013-03-26 08:15:00,
2013-03-26 04:20:00,32.9,25.6,29.88,SE,125,2.0,8.0,74,0.00,,,0.00,WUHU216DAVISVP2,2013-03-26 08:20:00,
2013-03-26 04:25:00,33.0,25.7,29.88,SE,129,2.0,10.0,74,0.00,,,0.00,WUHU216DAVISVP2,2013-03-26 08:25:00,
2013-03-26 04:30:00,33.0,25.6,29.88,ESE,114,3.0,10.0,74,0.00,,,0.00,WUHU216DAVISVP2,2013-03-26 08:30:00,
2013-03-26 04:35:00,33.0,26.0,29.88,ESE,113,4.0,9.0,75,0.00,,,0.00,WUHU216DAVISVP2,2013-03-26 08:35:00,
2013-03-26 04:40:00,32.9,25.9,29.88,ESE,116,4.0,8.0,75,0.00,,,0.00,WUHU216DAVISVP2,2013-03-26 08:40:00,
2013-03-26 04:45:00,32.9,25.9,29.88,ESE,104,3.0,7.0,75,0.00,,,0.00,WUHU216DAVISVP2,2013-03-26 08:45:00,
2013-03-26 04:50:00,32.8,25.8,29.88,SE,146,1.0,8.0,75,0.00,,,0.00,WUHU216DAVISVP2,2013-03-26 08:50:00,
2013-03-26 04:55:00,32.8,25.7,29.88,SE,132,2.0,8.0,75,0.00,,,0.00,WUHU216DAVISVP2,2013-03-26 08:55:00,
2013-03-26 05:00:00,32.8,26.1,29.88,ESE,120,4.0,9.0,76,0.00,,,0.00,WUHU216DAVISVP2,2013-03-26 09:00:00,
2013-03-26 05:05:00,32.8,26.1,29.89,SSE,155,0.0,10.0,76,0.00,,,0.00,WUHU216DAVISVP2,2013-03-26 09:05:00,
2013-03-26 05:10:00,32.7,26.3,29.89,SE,124,3.0,10.0,77,0.00,,,0.00,WUHU216DAVISVP2,2013-03-26 09:10:00,
2013-03-26 05:15:00,32.7,26.3,29.89,ESE,122,5.0,9.0,77,0.00,,,0.00,WUHU216DAVISVP2,2013-03-26 09:15:00,
2013-03-26 05:20:00,32.6,26.2,29.89,SE,130,1.0,10.0,77,0.00,,,0.00,WUHU216DAVISVP2,2013-03-26 09:20:00,
2013-03-26 05:25:00,32.5,26.4,29.89,SSE,152,6.0,10.0,78,0.00,,,0.00,WUHU216DAVISVP2,2013-03-26 09:25:00,
2013-03-26 05:30:00,32.5,26.4,29.89,SE,136,2.0,9.0,78,0.00,,,0.00,WUHU216DAVISVP2,2013-03-26 09:30:00,
2013-03-26 05:35:00,32.5,26.4,29.89,SE,135,1.0,9.0,78,0.00,,,0.00,WUHU216DAVISVP2,2013-03-26 09:35:00,
2013-03-26 05:40:00,32.5,26.4,29.89,ESE,117,3.0,7.0,78,0.00,,,0.00,WUHU216DAVISVP2,2013-03-26 09:40:00,
2013-03-26 05:45:00,32.5,26.7,29.89,SSE,155,3.0,7.0,79,0.00,,,0.00,WUHU216DAVISVP2,2013-03-26 09:45:00,
2013-03-26 05:50:00,32.5,26.4,29.89,ESE,113,6.0,7.0,78,0.00,,,0.00,WUHU216DAVISVP2,2013-03-26 09:50:00,
2013-03-26 05:55:00,32.5,26.4,29.90,SE,135,1.0,7.0,78,0.00,,,0.00,WUHU216DAVISVP2,2013-03-26 09:55:00,
2013-03-26 06:00:00,32.5,26.4,29.90,East,95,4.0,7.0,78,0.00,,,0.00,WUHU216DAVISVP2,2013-03-26 10:00:00,
2013-03-26 06:05:00,32.6,26.5,29.90,ESE,123,1.0,7.0,78,0.00,,,0.00,WUHU216DAVISVP2,2013-03-26 10:05:00,
2013-03-26 06:10:00,32.6,26.5,29.90,ESE,120,4.0,7.0,78,0.00,,,0.00,WUHU216DAVISVP2,2013-03-26 10:10:00,
2013-03-26 06:15:00,32.6,26.5,29.90,SE,137,2.0,8.0,78,0.00,,,0.00,WUHU216DAVISVP2,2013-03-26 10:15:00,
2013-03-26 06:20:00,32.5,26.4,29.90,ESE,108,2.0,8.0,78,0.00,,,0.00,WUHU216DAVISVP2,2013-03-26 10:20:00,
2013-03-26 06:25:00,32.5,26.4,29.90,ESE,120,6.0,8.0,78,0.00,,,0.00,WUHU216DAVISVP2,2013-03-26 10:25:00,
2013-03-26 06:30:00,32.5,26.7,29.91,ESE,122,1.0,9.0,79,0.00,,,0.00,WUHU216DAVISVP2,2013-03-26 10:30:00,
2013-03-26 06:35:00,32.5,26.7,29.91,SE,145,2.0,9.0,79,0.00,,,0.00,WUHU216DAVISVP2,2013-03-26 10:35:00,
2013-03-26 06:40:00,32.5,26.7,29.91,SE,126,2.0,8.0,79,0.00,,,0.00,WUHU216DAVISVP2,2013-03-26 10:40:00,
2013-03-26 06:45:00,32.4,26.6,29.91,SE,129,3.0,8.0,79,0.00,,,0.00,WUHU216DAVISVP2,2013-03-26 10:45:00,
2013-03-26 06:50:00,32.4,26.6,29.91,ESE,116,3.0,8.0,79,0.00,,,0.00,WUHU216DAVISVP2,2013-03-26 10:50:00,
2013-03-26 06:55:00,32.4,26.6,29.92,East,93,3.0,10.0,79,0.00,,,0.00,WUHU216DAVISVP2,2013-03-26 10:55:00,
2013-03-26 07:00:00,32.3,26.5,29.92,East,101,3.0,10.0,79,0.00,,,0.00,WUHU216DAVISVP2,2013-03-26 11:00:00,
2013-03-26 07:05:00,32.3,26.5,29.92,ESE,115,4.0,9.0,79,0.00,,,0.00,WUHU216DAVISVP2,2013-03-26 11:05:00,
2013-03-26 07:10:00,32.3,26.5,29.92,ESE,123,5.0,10.0,79,0.00,,,0.00,WUHU216DAVISVP2,2013-03-26 11:10:00,
2013-03-26 07:15:00,32.2,26.4,29.92,ESE,113,2.0,10.0,79,0.00,,,0.00,WUHU216DAVISVP2,2013-03-26 11:15:00,
2013-03-26 07:20:00,32.2,26.7,29.92,SE,146,2.0,10.0,80,0.00,,,0.00,WUHU216DAVISVP2,2013-03-26 11:20:00,
2013-03-26 07:25:00,32.2,26.7,29.92,ESE,121,4.0,10.0,80,0.00,,,0.00,WUHU216DAVISVP2,2013-03-26 11:25:00,
2013-03-26 07:30:00,32.1,26.6,29.93,ESE,121,2.0,8.0,80,0.00,,,0.00,WUHU216DAVISVP2,2013-03-26 11:30:00,
2013-03-26 07:35:00,32.1,26.6,29.93,ESE,107,2.0,6.0,80,0.00,,,0.00,WUHU216DAVISVP2,2013-03-26 11:35:00,
2013-03-26 07:40:00,32.1,26.6,29.93,ESE,117,0.0,6.0,80,0.00,,,0.00,WUHU216DAVISVP2,2013-03-26 11:40:00,
2013-03-26 07:45:00,32.1,26.6,29.93,ESE,122,1.0,5.0,80,0.00,,,0.00,WUHU216DAVISVP2,2013-03-26 11:45:00,
2013-03-26 07:50:00,32.1,26.6,29.94,ESE,110,4.0,5.0,80,0.00,,,0.00,WUHU216DAVISVP2,2013-03-26 11:50:00,
2013-03-26 07:55:00,32.1,26.6,29.94,ESE,117,0.0,5.0,80,0.00,,,0.00,WUHU216DAVISVP2,2013-03-26 11:55:00,
2013-03-26 08:00:00,32.1,26.6,29.94,SE,126,3.0,5.0,80,0.00,,,0.00,WUHU216DAVISVP2,2013-03-26 12:00:00,
2013-03-26 08:05:00,32.1,26.6,29.94,ESE,105,2.0,4.0,80,0.00,,,0.00,WUHU216DAVISVP2,2013-03-26 12:05:00,
2013-03-26 08:10:00,32.2,26.7,29.94,SE,124,3.0,6.0,80,0.00,,,0.00,WUHU216DAVISVP2,2013-03-26 12:10:00,
2013-03-26 08:15:00,32.2,26.7,29.94,ESE,123,4.0,7.0,80,0.00,,,0.00,WUHU216DAVISVP2,2013-03-26 12:15:00,
2013-03-26 08:20:00,32.3,26.8,29.95,ESE,121,3.0,7.0,80,0.00,,,0.00,WUHU216DAVISVP2,2013-03-26 12:20:00,
2013-03-26 08:25:00,32.3,26.8,29.95,ESE,110,1.0,6.0,80,0.00,,,0.00,WUHU216DAVISVP2,2013-03-26 12:25:00,
2013-03-26 08:30:00,32.4,26.9,29.95,East,98,2.0,8.0,80,0.00,,,0.00,WUHU216DAVISVP2,2013-03-26 12:30:00,
2013-03-26 08:35:00,32.5,27.0,29.95,East,101,4.0,8.0,80,0.00,,,0.00,WUHU216DAVISVP2,2013-03-26 12:35:00,
2013-03-26 08:40:00,32.5,27.0,29.95,ESE,108,3.0,8.0,80,0.00,,,0.00,WUHU216DAVISVP2,2013-03-26 12:40:00,
2013-03-26 08:45:00,32.6,27.1,29.95,SE,124,1.0,9.0,80,0.00,,,0.00,WUHU216DAVISVP2,2013-03-26 12:45:00,
2013-03-26 08:50:00,32.7,27.2,29.96,SE,131,2.0,9.0,80,0.00,,,0.00,WUHU216DAVISVP2,2013-03-26 12:50:00,
2013-03-26 08:55:00,32.8,27.3,29.96,ESE,107,2.0,8.0,80,0.00,,,0.00,WUHU216DAVISVP2,2013-03-26 12:55:00,
2013-03-26 09:00:00,32.9,27.4,29.96,SE,125,3.0,8.0,80,0.00,,,0.00,WUHU216DAVISVP2,2013-03-26 13:00:00,
2013-03-26 09:05:00,33.0,27.5,29.96,ESE,110,1.0,7.0,80,0.00,,,0.00,WUHU216DAVISVP2,2013-03-26 13:05:00,
2013-03-26 09:10:00,33.1,27.6,29.96,ESE,111,6.0,8.0,80,0.00,,,0.00,WUHU216DAVISVP2,2013-03-26 13:10:00,
2013-03-26 09:15:00,33.2,27.4,29.96,SE,145,2.0,8.0,79,0.00,,,0.00,WUHU216DAVISVP2,2013-03-26 13:15:00,
2013-03-26 09:20:00,33.4,27.6,29.97,SE,140,3.0,8.0,79,0.00,,,0.00,WUHU216DAVISVP2,2013-03-26 13:20:00,
2013-03-26 09:26:00,33.5,27.7,29.96,SSW,206,2.0,8.0,79,0.00,,,0.00,WUHU216DAVISVP2,2013-03-26 13:26:00,
2013-03-26 09:31:00,33.7,27.9,29.97,SE,126,3.0,8.0,79,0.00,,,0.00,WUHU216DAVISVP2,2013-03-26 13:31:00,
2013-03-26 09:36:00,33.9,27.8,29.97,SE,129,1.0,8.0,78,0.00,,,0.00,WUHU216DAVISVP2,2013-03-26 13:36:00,
2013-03-26 09:40:00,34.2,28.1,29.97,ESE,115,2.0,8.0,78,0.00,,,0.00,WUHU216DAVISVP2,2013-03-26 13:40:00,
2013-03-26 09:45:00,34.3,27.8,29.97,ESE,108,5.0,8.0,77,0.00,,,0.00,WUHU216DAVISVP2,2013-03-26 13:45:00,
2013-03-26 09:50:00,34.6,28.4,29.97,ESE,113,1.0,8.0,78,0.00,,,0.00,WUHU216DAVISVP2,2013-03-26 13:50:00,
2013-03-26 09:55:00,34.7,28.3,29.97,SSE,155,1.0,8.0,77,0.00,,,0.00,WUHU216DAVISVP2,2013-03-26 13:55:00,
2013-03-26 10:00:00,34.9,28.1,29.97,ESE,103,6.0,8.0,76,0.00,,,0.00,WUHU216DAVISVP2,2013-03-26 14:00:00,
2013-03-26 10:06:00,34.9,28.1,29.97,SE,146,0.0,8.0,76,0.00,,,0.00,WUHU216DAVISVP2,2013-03-26 14:06:00,
2013-03-26 10:11:00,35.2,28.7,29.97,SE,128,2.0,8.0,77,0.00,,,0.00,WUHU216DAVISVP2,2013-03-26 14:11:00,
2013-03-26 10:16:00,35.5,28.7,29.97,SE,132,1.0,7.0,76,0.00,,,0.00,WUHU216DAVISVP2,2013-03-26 14:16:00,
2013-03-26 10:21:00,35.5,28.4,29.97,SE,138,4.0,9.0,75,0.00,,,0.00,WUHU216DAVISVP2,2013-03-26 14:21:00,
2013-03-26 10:26:00,35.6,28.8,29.97,SW,218,2.0,9.0,76,0.00,,,0.00,WUHU216DAVISVP2,2013-03-26 14:26:00,
2013-03-26 10:31:00,35.9,28.5,29.98,ESE,122,3.0,9.0,74,0.00,,,0.00,WUHU216DAVISVP2,2013-03-26 14:31:00,
2013-03-26 10:36:00,36.0,28.6,29.98,East,96,9.0,9.0,74,0.00,,,0.00,WUHU216DAVISVP2,2013-03-26 14:36:00,
2013-03-26 10:41:00,36.0,28.9,29.98,SE,142,1.0,9.0,75,0.00,,,0.00,WUHU216DAVISVP2,2013-03-26 14:41:00,
2013-03-26 10:46:00,36.0,28.5,29.98,ESE,103,3.0,9.0,74,0.00,,,0.00,WUHU216DAVISVP2,2013-03-26 14:46:00,
2013-03-26 10:50:00,35.9,28.5,29.98,SSW,198,3.0,9.0,74,0.00,,,0.00,WUHU216DAVISVP2,2013-03-26 14:50:00,
2013-03-26 10:55:00,36.2,28.7,29.98,South,177,1.0,9.0,74,0.00,,,0.00,WUHU216DAVISVP2,2013-03-26 14:55:00,
2013-03-26 11:00:00,36.5,29.1,29.98,South,187,2.0,8.0,74,0.00,,,0.00,WUHU216DAVISVP2,2013-03-26 15:00:00,
2013-03-26 11:05:00,36.7,29.2,29.98,SE,142,1.0,8.0,74,0.00,,,0.00,WUHU216DAVISVP2,2013-03-26 15:05:00,
2013-03-26 11:10:00,36.4,28.6,29.98,ESE,116,1.0,8.0,73,0.00,,,0.00,WUHU216DAVISVP2,2013-03-26 15:10:00,
2013-03-26 11:15:00,36.4,28.6,29.98,ESE,120,5.0,8.0,73,0.00,,,0.00,WUHU216DAVISVP2,2013-03-26 15:15:00,
2013-03-26 11:20:00,36.5,28.7,29.98,ESE,123,4.0,8.0,73,0.00,,,0.00,WUHU216DAVISVP2,2013-03-26 15:20:00,
2013-03-26 11:25:00,36.8,29.3,29.98,ENE,64,5.0,8.0,74,0.00,,,0.00,WUHU216DAVISVP2,2013-03-26 15:25:00,
2013-03-26 11:30:00,36.8,29.0,29.98,East,98,3.0,10.0,73,0.00,,,0.00,WUHU216DAVISVP2,2013-03-26 15:30:00,
2013-03-26 11:35:00,37.1,28.6,29.98,ESE,123,4.0,10.0,71,0.00,,,0.00,WUHU216DAVISVP2,2013-03-26 15:35:00,
2013-03-26 11:40:00,37.3,29.2,29.98,East,83,3.0,10.0,72,0.00,,,0.00,WUHU216DAVISVP2,2013-03-26 15:40:00,
2013-03-26 11:45:00,37.3,28.8,29.98,ESE,116,4.0,9.0,71,0.00,,,0.00,WUHU216DAVISVP2,2013-03-26 15:45:00,
2013-03-26 11:50:00,37.6,29.5,29.98,East,101,2.0,10.0,72,0.00,,,0.00,WUHU216DAVISVP2,2013-03-26 15:50:00,
2013-03-26 11:55:00,38.1,29.2,29.99,East,79,4.0,10.0,70,0.00,,,0.00,WUHU216DAVISVP2,2013-03-26 15:55:00,
2013-03-26 12:00:00,38.2,29.3,29.99,ESE,105,2.0,10.0,70,0.00,,,0.00,WUHU216DAVISVP2,2013-03-26 16:00:00,
2013-03-26 12:05:00,38.6,29.4,29.99,East,91,8.0,10.0,69,0.00,,,0.00,WUHU216DAVISVP2,2013-03-26 16:05:00,
2013-03-26 12:10:00,38.7,29.1,29.99,ESE,122,2.0,13.0,68,0.00,,,0.00,WUHU216DAVISVP2,2013-03-26 16:10:00,
2013-03-26 12:15:00,39.0,29.3,29.99,ESE,120,7.0,13.0,68,0.00,,,0.00,WUHU216DAVISVP2,2013-03-26 16:15:00,
2013-03-26 12:20:00,40.1,30.4,29.98,SSE,153,2.0,12.0,68,0.00,,,0.00,WUHU216DAVISVP2,2013-03-26 16:20:00,
2013-03-26 12:25:00,40.7,30.7,29.98,East,90,3.0,12.0,67,0.00,,,0.00,WUHU216DAVISVP2,2013-03-26 16:25:00,
2013-03-26 12:30:00,40.5,29.4,29.99,SE,127,2.0,9.0,64,0.00,,,0.00,WUHU216DAVISVP2,2013-03-26 16:30:00,
2013-03-26 12:35:00,40.5,29.4,29.98,ESE,110,2.0,9.0,64,0.00,,,0.00,WUHU216DAVISVP2,2013-03-26 16:35:00,
2013-03-26 12:40:00,40.8,29.6,29.98,ESE,113,2.0,9.0,64,0.00,,,0.00,WUHU216DAVISVP2,2013-03-26 16:40:00,
2013-03-26 12:45:00,40.8,29.3,29.98,ESE,117,7.0,9.0,63,0.00,,,0.00,WUHU216DAVISVP2,2013-03-26 16:45:00,
2013-03-26 12:50:00,41.1,29.5,29.98,ESE,120,2.0,9.0,63,0.00,,,0.00,WUHU216DAVISVP2,2013-03-26 16:50:00,
2013-03-26 12:55:00,41.8,29.4,29.98,SE,128,2.0,9.0,61,0.00,,,0.00,WUHU216DAVISVP2,2013-03-26 16:55:00,
2013-03-26 13:00:00,42.0,29.5,29.98,ESE,103,3.0,9.0,61,0.00,,,0.00,WUHU216DAVISVP2,2013-03-26 17:00:00,
2013-03-26 13:05:00,42.3,29.0,29.97,ESE,111,3.0,9.0,59,0.00,,,0.00,WUHU216DAVISVP2,2013-03-26 17:05:00,
2013-03-26 13:10:00,42.2,29.0,29.97,ESE,113,5.0,9.0,59,0.00,,,0.00,WUHU216DAVISVP2,2013-03-26 17:10:00,
2013-03-26 13:15:00,42.2,28.1,29.97,East,99,6.0,10.0,57,0.00,,,0.00,WUHU216DAVISVP2,2013-03-26 17:15:00,
2013-03-26 13:20:00,42.1,27.1,29.97,SE,139,3.0,10.0,55,0.00,,,0.00,WUHU216DAVISVP2,2013-03-26 17:20:00,
2013-03-26 13:25:00,41.9,28.2,29.97,ESE,118,5.0,9.0,58,0.00,,,0.00,WUHU216DAVISVP2,2013-03-26 17:25:00,
2013-03-26 13:30:00,41.8,26.4,29.97,SE,146,1.0,9.0,54,0.00,,,0.00,WUHU216DAVISVP2,2013-03-26 17:30:00,
2013-03-26 13:35:00,41.6,25.7,29.97,SE,124,4.0,9.0,53,0.00,,,0.00,WUHU216DAVISVP2,2013-03-26 17:35:00,
2013-03-26 13:40:00,41.2,26.7,29.97,SSE,160,4.0,8.0,56,0.00,,,0.00,WUHU216DAVISVP2,2013-03-26 17:40:00,
2013-03-26 13:45:00,40.9,27.3,29.97,SE,132,3.0,11.0,58,0.00,,,0.00,WUHU216DAVISVP2,2013-03-26 17:45:00,
2013-03-26 13:50:00,40.3,28.0,29.98,SE,140,6.0,13.0,61,0.00,,,0.00,WUHU216DAVISVP2,2013-03-26 17:50:00,
2013-03-26 13:55:00,39.9,28.3,29.98,SE,139,1.0,13.0,63,0.00,,,0.00,WUHU216DAVISVP2,2013-03-26 17:55:00,
2013-03-26 14:00:00,39.8,28.6,29.98,SE,127,3.0,12.0,64,0.00,,,0.00,WUHU216DAVISVP2,2013-03-26 18:00:00,
2013-03-26 14:05:00,39.9,28.8,29.98,SE,131,2.0,12.0,64,0.00,,,0.00,WUHU216DAVISVP2,2013-03-26 18:05:00,
2013-03-26 14:10:00,39.9,28.8,29.98,ESE,109,4.0,10.0,64,0.00,,,0.00,WUHU216DAVISVP2,2013-03-26 18:10:00,
2013-03-26 14:15:00,39.8,28.7,29.98,SE,126,2.0,10.0,64,0.00,,,0.00,WUHU216DAVISVP2,2013-03-26 18:15:00,
2013-03-26 14:20:00,39.6,28.0,29.98,South,180,8.0,10.0,63,0.00,,,0.00,WUHU216DAVISVP2,2013-03-26 18:20:00,
2013-03-26 14:25:00,39.7,27.8,29.98,ESE,111,3.0,10.0,62,0.00,,,0.00,WUHU216DAVISVP2,2013-03-26 18:25:00,
2013-03-26 14:30:00,40.0,27.7,29.98,SE,141,2.0,9.0,61,0.00,,,0.00,WUHU216DAVISVP2,2013-03-26 18:30:00,
2013-03-26 14:35:00,40.0,27.6,29.98,SE,127,2.0,9.0,61,0.00,,,0.00,WUHU216DAVISVP2,2013-03-26 18:35:00,
2013-03-26 14:40:00,40.4,28.0,29.98,SE,144,2.0,9.0,61,0.00,,,0.00,WUHU216DAVISVP2,2013-03-26 18:40:00,
2013-03-26 14:45:00,41.0,28.2,29.98,SE,125,2.0,9.0,60,0.00,,,0.00,WUHU216DAVISVP2,2013-03-26 18:45:00,
2013-03-26 14:50:00,41.5,27.8,29.98,East,101,3.0,9.0,58,0.00,,,0.00,WUHU216DAVISVP2,2013-03-26 18:50:00,
2013-03-26 14:55:00,41.5,27.4,29.97,East,90,3.0,9.0,57,0.00,,,0.00,WUHU216DAVISVP2,2013-03-26 18:55:00,
2013-03-26 15:00:00,41.6,27.1,29.97,SW,222,6.0,9.0,56,0.00,,,0.00,WUHU216DAVISVP2,2013-03-26 19:00:00,
2013-03-26 15:05:00,41.6,27.5,29.97,ESE,115,5.0,9.0,57,0.00,,,0.00,WUHU216DAVISVP2,2013-03-26 19:05:00,
2013-03-26 15:10:00,41.5,26.5,29.97,SE,144,4.0,10.0,55,0.00,,,0.00,WUHU216DAVISVP2,2013-03-26 19:10:00,
2013-03-26 15:15:00,41.5,26.1,29.97,SSW,200,1.0,10.0,54,0.00,,,0.00,WUHU216DAVISVP2,2013-03-26 19:15:00,
2013-03-26 15:20:00,41.4,26.4,29.97,ESE,111,6.0,10.0,55,0.00,,,0.00,WUHU216DAVISVP2,2013-03-26 19:20:00,
2013-03-26 15:25:00,41.2,26.7,29.97,SE,137,6.0,10.0,56,0.00,,,0.00,WUHU216DAVISVP2,2013-03-26 19:25:00,
2013-03-26 15:30:00,41.1,26.6,29.97,ESE,116,3.0,9.0,56,0.00,,,0.00,WUHU216DAVISVP2,2013-03-26 19:30:00,
2013-03-26 15:35:00,41.0,26.5,29.97,SE,125,4.0,9.0,56,0.00,,,0.00,WUHU216DAVISVP2,2013-03-26 19:35:00,
2013-03-26 15:40:00,41.3,27.2,29.97,ESE,106,2.0,8.0,57,0.00,,,0.00,WUHU216DAVISVP2,2013-03-26 19:40:00,
2013-03-26 15:45:00,41.5,26.5,29.97,East,79,4.0,7.0,55,0.00,,,0.00,WUHU216DAVISVP2,2013-03-26 19:45:00,
2013-03-26 15:50:00,41.5,27.0,29.97,ESE,116,3.0,7.0,56,0.00,,,0.00,WUHU216DAVISVP2,2013-03-26 19:50:00,
2013-03-26 15:55:00,41.5,27.0,29.97,ESE,110,1.0,6.0,56,0.00,,,0.00,WUHU216DAVISVP2,2013-03-26 19:55:00,
2013-03-26 16:00:00,41.6,26.2,29.97,ESE,114,2.0,9.0,54,0.00,,,0.00,WUHU216DAVISVP2,2013-03-26 20:00:00,
2013-03-26 16:05:00,41.5,26.5,29.97,ESE,105,4.0,9.0,55,0.00,,,0.00,WUHU216DAVISVP2,2013-03-26 20:05:00,
2013-03-26 16:10:00,41.6,26.6,29.97,SE,125,3.0,9.0,55,0.00,,,0.00,WUHU216DAVISVP2,2013-03-26 20:10:00,
2013-03-26 16:15:00,41.7,26.3,29.98,SE,129,3.0,9.0,54,0.00,,,0.00,WUHU216DAVISVP2,2013-03-26 20:15:00,
2013-03-26 16:20:00,41.7,27.6,29.98,South,181,9.0,15.0,57,0.00,,,0.00,WUHU216DAVISVP2,2013-03-26 20:20:00,
2013-03-26 16:25:00,39.9,28.8,29.98,South,181,4.0,15.0,64,0.00,,,0.00,WUHU216DAVISVP2,2013-03-26 20:25:00,
2013-03-26 16:30:00,39.0,28.7,29.98,South,184,6.0,15.0,66,0.00,,,0.00,WUHU216DAVISVP2,2013-03-26 20:30:00,
2013-03-26 16:35:00,38.6,29.0,29.99,SSE,153,4.0,15.0,68,0.00,,,0.00,WUHU216DAVISVP2,2013-03-26 20:35:00,
2013-03-26 16:40:00,38.4,28.8,29.98,SSW,196,3.0,13.0,68,0.00,,,0.00,WUHU216DAVISVP2,2013-03-26 20:40:00,
2013-03-26 16:45:00,38.4,28.8,29.99,South,181,6.0,12.0,68,0.00,,,0.00,WUHU216DAVISVP2,2013-03-26 20:45:00,
2013-03-26 16:50:00,38.4,28.8,29.99,SSE,162,0.0,12.0,68,0.00,,,0.00,WUHU216DAVISVP2,2013-03-26 20:50:00,
2013-03-26 16:55:00,38.5,28.2,29.99,SSW,198,1.0,10.0,66,0.00,,,0.00,WUHU216DAVISVP2,2013-03-26 20:55:00,
2013-03-26 17:00:00,38.4,28.1,29.99,South,173,2.0,9.0,66,0.00,,,0.00,WUHU216DAVISVP2,2013-03-26 21:00:00,
2013-03-26 17:05:00,38.6,28.2,29.99,SSE,163,0.0,9.0,66,0.00,,,0.00,WUHU216DAVISVP2,2013-03-26 21:05:00,
2013-03-26 17:10:00,38.7,28.3,29.99,East,101,3.0,9.0,66,0.00,,,0.00,WUHU216DAVISVP2,2013-03-26 21:10:00,
2013-03-26 17:15:00,38.8,27.7,29.99,ESE,120,3.0,9.0,64,0.00,,,0.00,WUHU216DAVISVP2,2013-03-26 21:15:00,
2013-03-26 17:20:00,39.0,27.9,29.99,East,94,2.0,5.0,64,0.00,,,0.00,WUHU216DAVISVP2,2013-03-26 21:20:00,
2013-03-26 17:25:00,38.9,27.8,29.99,ESE,117,2.0,6.0,64,0.00,,,0.00,WUHU216DAVISVP2,2013-03-26 21:25:00,
2013-03-26 17:30:00,38.9,28.6,29.99,SE,124,0.0,6.0,66,0.00,,,0.00,WUHU216DAVISVP2,2013-03-26 21:30:00,
2013-03-26 17:35:00,39.1,28.4,29.99,ESE,113,0.0,6.0,65,0.00,,,0.00,WUHU216DAVISVP2,2013-03-26 21:35:00,
2013-03-26 17:40:00,39.2,28.1,29.99,East,98,3.0,6.0,64,0.00,,,0.00,WUHU216DAVISVP2,2013-03-26 21:40:00,
2013-03-26 17:46:00,39.4,28.2,29.99,ENE,73,6.0,6.0,64,0.00,,,0.00,WUHU216DAVISVP2,2013-03-26 21:46:00,
2013-03-26 17:51:00,39.5,27.5,29.99,East,97,0.0,6.0,62,0.00,,,0.00,WUHU216DAVISVP2,2013-03-26 21:51:00,
2013-03-26 17:56:00,39.7,27.8,29.99,East,87,2.0,5.0,62,0.00,,,0.00,WUHU216DAVISVP2,2013-03-26 21:56:00,
2013-03-26 18:00:00,39.7,27.0,29.99,SE,125,3.0,12.0,60,0.00,,,0.00,WUHU216DAVISVP2,2013-03-26 22:00:00,
2013-03-26 18:06:00,39.7,26.2,29.99,East,98,3.0,12.0,58,0.00,,,0.00,WUHU216DAVISVP2,2013-03-26 22:06:00,
2013-03-26 18:11:00,39.7,26.1,29.99,ENE,70,8.0,11.0,58,0.00,,,0.00,WUHU216DAVISVP2,2013-03-26 22:11:00,
2013-03-26 18:15:00,39.6,26.9,29.99,ESE,118,6.0,11.0,60,0.00,,,0.00,WUHU216DAVISVP2,2013-03-26 22:15:00,
2013-03-26 18:21:00,38.7,29.4,30.00,South,176,6.0,11.0,69,0.00,,,0.00,WUHU216DAVISVP2,2013-03-26 22:21:00,
2013-03-26 18:26:00,37.6,29.8,30.00,South,184,5.0,11.0,73,0.00,,,0.00,WUHU216DAVISVP2,2013-03-26 22:26:00,
2013-03-26 18:31:00,37.3,30.2,30.00,SSW,204,4.0,11.0,75,0.00,,,0.00,WUHU216DAVISVP2,2013-03-26 22:31:00,
2013-03-26 18:36:00,36.9,29.7,30.00,SSE,152,3.0,11.0,75,0.00,,,0.00,WUHU216DAVISVP2,2013-03-26 22:36:00,
2013-03-26 18:41:00,36.8,29.7,30.00,SSE,162,4.0,8.0,75,0.00,,,0.00,WUHU216DAVISVP2,2013-03-26 22:41:00,
2013-03-26 18:46:00,36.7,29.6,30.00,East,98,3.0,8.0,75,0.00,,,0.00,WUHU216DAVISVP2,2013-03-26 22:46:00,
2013-03-26 18:51:00,36.6,29.4,30.01,South,173,0.0,9.0,75,0.00,,,0.00,WUHU216DAVISVP2,2013-03-26 22:51:00,
2013-03-26 18:56:00,36.6,29.5,30.01,SSE,166,1.0,9.0,75,0.00,,,0.00,WUHU216DAVISVP2,2013-03-26 22:56:00,
2013-03-26 19:01:00,36.6,29.5,30.01,SSE,163,0.0,9.0,75,0.00,,,0.00,WUHU216DAVISVP2,2013-03-26 23:01:00,
2013-03-26 19:06:00,36.5,29.4,30.01,South,177,1.0,4.0,75,0.00,,,0.00,WUHU216DAVISVP2,2013-03-26 23:06:00,
2013-03-26 19:11:00,36.5,29.7,30.01,SSE,158,0.0,4.0,76,0.00,,,0.00,WUHU216DAVISVP2,2013-03-26 23:11:00,
2013-03-26 19:16:00,36.5,29.4,30.01,SSW,201,0.0,4.0,75,0.00,,,0.00,WUHU216DAVISVP2,2013-03-26 23:16:00,
2013-03-26 19:21:00,36.5,29.0,30.01,ESE,122,0.0,3.0,74,0.00,,,0.00,WUHU216DAVISVP2,2013-03-26 23:21:00,
2013-03-26 19:26:00,36.5,29.0,30.01,ESE,115,0.0,2.0,74,0.00,,,0.00,WUHU216DAVISVP2,2013-03-26 23:26:00,
2013-03-26 19:31:00,36.6,28.8,30.01,ESE,110,0.0,2.0,73,0.00,,,0.00,WUHU216DAVISVP2,2013-03-26 23:31:00,
2013-03-26 19:36:00,36.6,28.5,30.02,ESE,123,0.0,4.0,72,0.00,,,0.00,WUHU216DAVISVP2,2013-03-26 23:36:00,
2013-03-26 19:41:00,36.6,28.5,30.01,East,101,0.0,4.0,72,0.00,,,0.00,WUHU216DAVISVP2,2013-03-26 23:41:00,
2013-03-26 19:46:00,36.5,28.4,30.01,ESE,103,0.0,4.0,72,0.00,,,0.00,WUHU216DAVISVP2,2013-03-26 23:46:00,
2013-03-26 19:51:00,36.6,28.5,30.02,East,101,1.0,4.0,72,0.00,,,0.00,WUHU216DAVISVP2,2013-03-26 23:51:00,
2013-03-26 19:56:00,36.6,28.4,30.02,East,95,2.0,2.0,72,0.00,,,0.00,WUHU216DAVISVP2,2013-03-26 23:56:00,
2013-03-26 20:01:00,36.6,28.2,30.02,ESE,104,0.0,2.0,71,0.00,,,0.00,WUHU216DAVISVP2,2013-03-27 00:01:00,
2013-03-26 20:06:00,36.7,27.6,30.02,East,89,2.0,6.0,69,0.00,,,0.00,WUHU216DAVISVP2,2013-03-27 00:06:00,
2013-03-26 20:11:00,36.8,27.3,30.02,East,99,2.0,6.0,68,0.00,,,0.00,WUHU216DAVISVP2,2013-03-27 00:11:00,
2013-03-26 20:16:00,36.9,27.4,30.02,East,80,1.0,5.0,68,0.00,,,0.00,WUHU216DAVISVP2,2013-03-27 00:16:00,
2013-03-26 20:21:00,36.8,27.3,30.02,East,92,1.0,5.0,68,0.00,,,0.00,WUHU216DAVISVP2,2013-03-27 00:21:00,
2013-03-26 20:26:00,36.8,27.6,30.02,East,82,2.0,4.0,69,0.00,,,0.00,WUHU216DAVISVP2,2013-03-27 00:26:00,
2013-03-26 20:31:00,36.8,27.7,30.02,East,95,2.0,4.0,69,0.00,,,0.00,WUHU216DAVISVP2,2013-03-27 00:31:00,
2013-03-26 20:36:00,36.8,27.7,30.03,East,82,2.0,6.0,69,0.00,,,0.00,WUHU216DAVISVP2,2013-03-27 00:36:00,
2013-03-26 20:42:00,36.8,27.7,30.03,East,81,1.0,6.0,69,0.00,,,0.00,WUHU216DAVISVP2,2013-03-27 00:42:00,
2013-03-26 20:47:00,36.8,27.7,30.03,SE,131,0.0,5.0,69,0.00,,,0.00,WUHU216DAVISVP2,2013-03-27 00:47:00,
2013-03-26 20:52:00,36.8,27.7,30.03,East,96,1.0,5.0,69,0.00,,,0.00,WUHU216DAVISVP2,2013-03-27 00:52:00,
2013-03-26 20:57:00,36.8,27.7,30.03,East,97,2.0,5.0,69,0.00,,,0.00,WUHU216DAVISVP2,2013-03-27 00:57:00,
2013-03-26 21:02:00,36.7,27.6,30.03,East,79,2.0,4.0,69,0.00,,,0.00,WUHU216DAVISVP2,2013-03-27 01:02:00,
2013-03-26 21:07:00,36.7,27.9,30.03,East,91,3.0,5.0,70,0.00,,,0.00,WUHU216DAVISVP2,2013-03-27 01:07:00,
2013-03-26 21:12:00,36.6,27.8,30.03,ESE,102,1.0,5.0,70,0.00,,,0.00,WUHU216DAVISVP2,2013-03-27 01:12:00,
2013-03-26 21:17:00,36.5,27.7,30.03,ESE,103,1.0,5.0,70,0.00,,,0.00,WUHU216DAVISVP2,2013-03-27 01:17:00,
2013-03-26 21:22:00,36.5,27.7,30.03,East,98,4.0,11.0,70,0.00,,,0.00,WUHU216DAVISVP2,2013-03-27 01:22:00,
2013-03-26 21:27:00,36.5,28.1,30.04,ESE,105,2.0,11.0,71,0.00,,,0.00,WUHU216DAVISVP2,2013-03-27 01:27:00,
2013-03-26 21:32:00,36.4,28.0,30.04,ESE,108,0.0,10.0,71,0.00,,,0.00,WUHU216DAVISVP2,2013-03-27 01:32:00,
2013-03-26 21:37:00,36.3,28.2,30.04,ESE,120,3.0,10.0,72,0.00,,,0.00,WUHU216DAVISVP2,2013-03-27 01:37:00,
2013-03-26 21:42:00,36.3,28.5,30.04,SE,129,3.0,9.0,73,0.00,,,0.00,WUHU216DAVISVP2,2013-03-27 01:42:00,
2013-03-26 21:47:00,36.2,28.4,30.04,ENE,70,4.0,9.0,73,0.00,,,0.00,WUHU216DAVISVP2,2013-03-27 01:47:00,
2013-03-26 21:52:00,36.1,29.0,30.04,ESE,105,7.0,11.0,75,0.00,,,0.00,WUHU216DAVISVP2,2013-03-27 01:52:00,
2013-03-26 21:57:00,35.9,29.1,30.04,East,97,4.0,11.0,76,0.00,,,0.00,WUHU216DAVISVP2,2013-03-27 01:57:00,
2013-03-26 22:02:00,35.8,29.3,30.04,East,91,2.0,10.0,77,0.00,,,0.00,WUHU216DAVISVP2,2013-03-27 02:02:00,
2013-03-26 22:07:00,35.6,29.4,30.05,ENE,75,8.0,9.0,78,0.00,,,0.00,WUHU216DAVISVP2,2013-03-27 02:07:00,
2013-03-26 22:12:00,35.4,29.6,30.05,East,95,3.0,11.0,79,0.00,,,0.00,WUHU216DAVISVP2,2013-03-27 02:12:00,
2013-03-26 22:17:00,35.2,29.7,30.05,SE,124,4.0,11.0,80,0.00,,,0.00,WUHU216DAVISVP2,2013-03-27 02:17:00,
2013-03-26 22:22:00,35.1,29.9,30.05,East,99,2.0,10.0,81,0.00,,,0.00,WUHU216DAVISVP2,2013-03-27 02:22:00,
2013-03-26 22:27:00,34.9,29.7,30.05,ESE,116,4.0,8.0,81,0.00,,,0.00,WUHU216DAVISVP2,2013-03-27 02:27:00,
2013-03-26 22:32:00,34.8,29.9,30.05,ENE,75,4.0,9.0,82,0.00,,,0.00,WUHU216DAVISVP2,2013-03-27 02:32:00,
2013-03-26 22:37:00,34.7,29.8,30.05,ESE,102,2.0,9.0,82,0.00,,,0.00,WUHU216DAVISVP2,2013-03-27 02:37:00,
2013-03-26 22:42:00,34.7,29.8,30.05,ESE,114,2.0,8.0,82,0.00,,,0.00,WUHU216DAVISVP2,2013-03-27 02:42:00,
2013-03-26 22:47:00,34.5,29.6,30.05,ESE,110,4.0,8.0,82,0.00,,,0.00,WUHU216DAVISVP2,2013-03-27 02:47:00,
2013-03-26 22:52:00,34.5,29.9,30.05,ESE,104,3.0,7.0,83,0.00,,,0.00,WUHU216DAVISVP2,2013-03-27 02:52:00,
2013-03-26 22:57:00,34.5,29.9,30.05,East,98,2.0,7.0,83,0.00,,,0.00,WUHU216DAVISVP2,2013-03-27 02:57:00,
2013-03-26 23:02:00,34.5,29.9,30.05,East,99,4.0,7.0,83,0.00,,,0.00,WUHU216DAVISVP2,2013-03-27 03:02:00,
2013-03-26 23:07:00,34.5,29.9,30.05,ENE,76,8.0,9.0,83,0.00,,,0.00,WUHU216DAVISVP2,2013-03-27 03:07:00,
2013-03-26 23:12:00,34.4,29.8,30.05,East,97,3.0,9.0,83,0.00,,,0.00,WUHU216DAVISVP2,2013-03-27 03:12:00,
2013-03-26 23:17:00,34.4,29.8,30.05,East,85,8.0,9.0,83,0.00,,,0.00,WUHU216DAVISVP2,2013-03-27 03:17:00,
2013-03-26 23:22:00,34.4,29.8,30.05,SE,127,3.0,9.0,83,0.00,,,0.00,WUHU216DAVISVP2,2013-03-27 03:22:00,
2013-03-26 23:27:00,34.4,29.8,30.05,East,97,3.0,9.0,83,0.00,,,0.00,WUHU216DAVISVP2,2013-03-27 03:27:00,
2013-03-26 23:32:00,34.3,29.7,30.05,ESE,119,2.0,8.0,83,0.00,,,0.00,WUHU216DAVISVP2,2013-03-27 03:32:00,
2013-03-26 23:37:00,34.3,29.7,30.05,SE,127,2.0,7.0,83,0.00,,,0.00,WUHU216DAVISVP2,2013-03-27 03:37:00,
2013-03-26 23:42:00,34.3,29.7,30.05,SE,124,3.0,7.0,83,0.00,,,0.00,WUHU216DAVISVP2,2013-03-27 03:42:00,
2013-03-26 23:47:00,34.3,29.4,30.05,East,91,4.0,8.0,82,0.00,,,0.00,WUHU216DAVISVP2,2013-03-27 03:47:00,
2013-03-26 23:52:00,34.4,29.5,30.05,ESE,111,2.0,8.0,82,0.00,,,0.00,WUHU216DAVISVP2,2013-03-27 03:52:00,
2013-03-26 23:57:00,34.4,29.5,30.05,ESE,102,3.0,7.0,82,0.00,,,0.00,WUHU216DAVISVP2,2013-03-27 03:57:00,